This is the latest recevied weather packets stored in our database for station/object KK7ISX. If no packets are shown the sender has not sent any weather packets the latest 10 day(s).
| Time | Temp. | Humidity | Pressure | Rain* | Wind** | Luminosity | Snow |
|---|---|---|---|---|---|---|---|
| 1778005599 | 20.56° C | 39% | 1011 hPa | 0 mm | - | 754 W/m² | - |
| 1778005296 | 21.11° C | 39% | 1010.9 hPa | 0 mm | - | 752 W/m² | - |
| 1778004992 | 21.11° C | 38% | 1011 hPa | 0 mm | - | 747 W/m² | - |
| 1778004690 | 21.11° C | 38% | 1010.8 hPa | 0 mm | - | 744 W/m² | - |
| 1778004386 | 21.67° C | 37% | 1010.9 hPa | 0 mm | - | 740 W/m² | - |
| 1778004083 | 20.56° C | 40% | 1010.9 hPa | 0 mm | - | 734 W/m² | - |
| 1778003779 | 20.56° C | 38% | 1011.1 hPa | 0 mm | - | 726 W/m² | - |
| 1778003476 | 20.56° C | 40% | 1010.9 hPa | 0 mm | - | 718 W/m² | - |
| 1778003172 | 20.56° C | 40% | 1011 hPa | 0 mm | - | 709 W/m² | - |
| 1778002868 | 20° C | 41% | 1010.8 hPa | 0 mm | - | 698 W/m² | - |
| 1778002565 | 20° C | 40% | 1011 hPa | 0 mm | - | 690 W/m² | - |
| 1778002262 | 20.56° C | 40% | 1010.9 hPa | 0 mm | - | 680 W/m² | - |
| 1778001960 | 20° C | 39% | 1011 hPa | 0 mm | - | 671 W/m² | - |
| 1778001656 | 21.11° C | 38% | 1011 hPa | 0 mm | - | 659 W/m² | - |
| 1778001351 | 20.56° C | 40% | 1011.1 hPa | 0 mm | - | 648 W/m² | - |
| 1778001048 | 20° C | 39% | 1011 hPa | 0 mm | - | 637 W/m² | - |
| 1778000745 | 20° C | 40% | 1011 hPa | 0 mm | - | 624 W/m² | - |
| 1778000442 | 20° C | 40% | 1010.9 hPa | 0 mm | - | 612 W/m² | - |
| 1778000137 | 20° C | 40% | 1010.7 hPa | 0 mm | - | 598 W/m² | - |
| 1777999832 | 20° C | 40% | 1010.8 hPa | 0 mm | - | 585 W/m² | - |
| 1777999529 | 18.89° C | 40% | 1010.8 hPa | 0 mm | - | 571 W/m² | - |
| 1777999227 | 18.33° C | 41% | 1010.7 hPa | 0 mm | - | 556 W/m² | - |
| 1777998925 | 19.44° C | 42% | 1010.8 hPa | 0 mm | - | 542 W/m² | - |
| 1777998621 | 18.33° C | 42% | 1011 hPa | 0 mm | - | 529 W/m² | - |
| 1777998315 | 18.89° C | 42% | 1010.6 hPa | 0 mm | - | 514 W/m² | - |
* Rain latest hour (hover to see other rain measurements)
** Current wind speed in m/s (hover to see current wind gust speed)